Buffalo, NY

8:18 AM EST on December 08, 2019 (GMT -0500)
Buffalo Niagara International

Weather History for KBUF - November, 2019

Change the Weather History Date:

Thursday, November 21, 2019

  Actual Average Record
Temperature  
Mean Temperature 41 °F 39 °F  
Max Temperature 51 °F 45 °F 71 °F (1913)
Min Temperature 31 °F 32 °F 7 °F (1880)
Degree Days  
Heating Degree Days 24 26  
Month to date heating degree days 640 476  
Since 1 July heating degree days 1074 1081  
Cooling Degree Days 0 0  
Month to date cooling degree days 0 0  
Year to date cooling degree days 604 544  
Moisture  
Dew Point 34 °F    
Average Humidity 74    
Maximum Humidity 92    
Minimum Humidity 56    
Precipitation  
Precipitation 0.03 in 0.14 in 1.77 in (2007)
Month to date precipitation 1.70 2.82  
Year to date precipitation 42.18 35.40  
Snow  
Snow 0.00 in 0.30 in 3.10 in (1957)
Month to date snowfall 12.6 4.3  
Since 1 July snowfall 12.6 5.2  
Since 1 September snowfall 12.6 5.2  
Snow Depth 0.00 in    
Sea Level Pressure  
Sea Level Pressure 30.03 in    
Wind  
Wind Speed 10 mph (South)    
Max Wind Speed 30 mph    
Max Gust Speed 38 mph    
Visibility 9 miles    
Events Rain    
T = Trace of Precipitation, MM = Missing Value Source: NWS Daily Summary

Daily Weather History Graph

Daily Weather History Graph

Search for Another Location

Airport or City:

Astronomy

Nov. 21, 2019 Rise Set
Actual Time 7:14 AM EST 4:46 PM EST
Civil Twilight 6:43 AM EST 5:17 PM EST
Nautical Twilight 6:08 AM EST 5:52 PM EST
Astronomical Twilight 5:34 AM EST 6:26 PM EST
Moon 12:56 AM EST (11/21) 2:24 PM EST (11/21)
Length of Visible Light 10h 34m
Length of Day
9h 32m
Waning Crescent, 30% of the Moon is Illuminated
Nov 21
Waning Crescent
Nov 26
New
Dec 4
First Quarter
Dec 12
Full
Dec 18
Last Quarter

Hourly Weather History & Observations

Time (EST) Temp. Windchill Dew Point Humidity Pressure Visibility Wind Dir Wind Speed Gust Speed Precip Events Conditions
12:54 AM 33.1 °F - 30.0 °F 89% 30.25 in 8.0 mi Calm Calm - N/A   Mostly Cloudy
1:54 AM 33.1 °F 28.7 °F 30.0 °F 89% 30.25 in 8.0 mi South 4.6 mph - N/A   Scattered Clouds
2:54 AM 33.1 °F - 30.0 °F 89% 30.24 in 8.0 mi Calm Calm - N/A   Scattered Clouds
3:54 AM 34.0 °F 31.0 °F 30.9 °F 89% 30.23 in 8.0 mi SSE 3.5 mph - N/A   Overcast
4:54 AM 35.1 °F 32.2 °F 32.0 °F 89% 30.22 in 8.0 mi SE 3.5 mph - N/A   Overcast
5:06 AM 35.1 °F 32.2 °F 32.0 °F 89% 30.20 in 8.0 mi South 3.5 mph - N/A   Overcast
5:54 AM 35.1 °F 31.0 °F 33.1 °F 92% 30.22 in 9.0 mi South 4.6 mph - N/A   Overcast
6:54 AM 37.0 °F 33.3 °F 34.0 °F 89% 30.21 in 10.0 mi South 4.6 mph - N/A   Overcast
7:54 AM 37.0 °F 31.0 °F 33.1 °F 86% 30.20 in 10.0 mi South 8.1 mph - N/A   Mostly Cloudy
8:01 AM 37.9 °F 32.1 °F 33.1 °F 83% 30.18 in 10.0 mi South 8.1 mph - N/A   Clear
8:22 AM 37.4 °F 32.1 °F 33.8 °F 87% 30.18 in 10.0 mi South 6.9 mph - N/A   Scattered Clouds
8:54 AM 39.9 °F 35.1 °F 34.0 °F 79% 30.19 in 10.0 mi South 6.9 mph - N/A   Scattered Clouds
10:54 AM 43.0 °F 36.0 °F 33.1 °F 68% 30.14 in 10.0 mi South 13.8 mph - N/A   Overcast
11:54 AM 44.1 °F 37.7 °F 33.1 °F 65% 30.09 in 10.0 mi SSW 12.7 mph - N/A   Overcast
12:54 PM 46.0 °F 40.6 °F 34.0 °F 63% 30.04 in 10.0 mi South 11.5 mph - N/A   Overcast
1:54 PM 46.0 °F 41.4 °F 34.0 °F 63% 29.99 in 10.0 mi South 9.2 mph - N/A   Overcast
2:54 PM 46.9 °F - 35.1 °F 63% 29.95 in 10.0 mi SSE 9.2 mph - 0.00 in Rain Light Rain
3:54 PM 48.0 °F - 34.0 °F 58% 29.90 in 10.0 mi South 11.5 mph - 0.00 in   Overcast
4:54 PM 48.0 °F - 33.1 °F 56% 29.85 in 10.0 mi South 10.4 mph - N/A   Overcast
5:54 PM 50.0 °F - 32.0 °F 50% 29.77 in 10.0 mi SSE 16.1 mph 24.2 mph 0.00 in Rain Light Rain
6:54 PM 51.1 °F - 32.0 °F 48% 29.75 in 10.0 mi SSW 17.3 mph - 0.00 in   Overcast
7:54 PM 48.0 °F - 37.9 °F 68% 29.77 in 10.0 mi SSW 15.0 mph - 0.01 in Rain Light Rain
8:35 PM 46.9 °F - 39.9 °F 77% 29.74 in 7.0 mi SSW 20.7 mph 32.2 mph 0.02 in Rain Light Rain
8:54 PM 46.9 °F - 39.9 °F 77% 29.76 in 9.0 mi SSW 18.4 mph - 0.02 in Rain Light Rain
9:54 PM 48.0 °F - 42.1 °F 80% 29.73 in 10.0 mi SSW 12.7 mph - 0.00 in Rain Light Rain
10:54 PM 51.1 °F - 43.0 °F 74% 29.70 in 10.0 mi SW 16.1 mph 26.5 mph 0.00 in   Overcast
11:54 PM 51.1 °F - 46.0 °F 83% 29.69 in 7.0 mi SW 20.7 mph 35.7 mph 0.00 in Rain Light Rain